BAW429 EHAM-EGLL

Flight info

Callsign BAW429
Flight time 0h 42m
Altitude 20000
Route IDRID L980 LOGAN
Aircraft A21N/M-SDE3FGHIJ1LRWXYZ/SB1G1

Departure

Time 2026-05-04 09:17
Airport Amsterdam Airport Schiphol (EHAM)

Arrival

Time 2026-05-04 10:00
Airport London Heathrow Airport (EGLL)
Time Latitude Longitude Altitude Speed Heading
2026-05-04 08:31 52.30700 4.77279 4 ft 0 kts
2026-05-04 09:06 52.30677 4.77277 4 ft 3 kts
2026-05-04 09:07 52.30646 4.77212 4 ft 0 kts 94°
2026-05-04 09:09 52.30646 4.77225 4 ft 6 kts 94°
2026-05-04 09:10 52.30642 4.77308 4 ft 9 kts 94°
2026-05-04 09:10 52.30638 4.77417 4 ft 11 kts 91°
2026-05-04 09:10 52.30644 4.77506 4 ft 7 kts 87°
2026-05-04 09:10 52.30675 4.77583 4 ft 10 kts 21°
2026-05-04 09:11 52.30751 4.77597 4 ft 12 kts
2026-05-04 09:11 52.30843 4.77606 4 ft 14 kts
2026-05-04 09:11 52.30942 4.77616 4 ft 12 kts
2026-05-04 09:11 52.31036 4.77624 4 ft 15 kts
2026-05-04 09:12 52.31143 4.77633 4 ft 17 kts
2026-05-04 09:12 52.31245 4.77642 4 ft 8 kts
2026-05-04 09:14 52.31781 4.77691 3 ft 11 kts
2026-05-04 09:14 52.31868 4.77700 4 ft 14 kts
2026-05-04 09:14 52.31970 4.77711 4 ft 10 kts
2026-05-04 09:14 52.32040 4.77774 4 ft 13 kts 40°
2026-05-04 09:15 52.32103 4.77868 4 ft 10 kts 43°
2026-05-04 09:15 52.32120 4.77965 4 ft 7 kts 96°
2026-05-04 09:15 52.32079 4.78011 4 ft 8 kts 179°
2026-05-04 09:15 52.32045 4.78008 4 ft 0 kts 184°
2026-05-04 09:17 52.25214 4.75933 2687 ft 228 kts 230°
2026-05-04 09:18 52.24444 4.73515 3177 ft 253 kts 252°
2026-05-04 09:18 52.23931 4.70712 3988 ft 262 kts 253°
2026-05-04 09:18 52.23412 4.67834 4970 ft 266 kts 253°
2026-05-04 09:18 52.22873 4.64938 5950 ft 269 kts 252°
2026-05-04 09:19 52.22317 4.62010 6935 ft 271 kts 252°
2026-05-04 09:19 52.21749 4.59055 7916 ft 274 kts 252°
2026-05-04 09:19 52.21166 4.56083 8892 ft 277 kts 252°
2026-05-04 09:19 52.20570 4.53077 9820 ft 281 kts 252°
2026-05-04 09:20 52.19957 4.49985 10500 ft 297 kts 252°
2026-05-04 09:20 52.19297 4.46648 10877 ft 321 kts 252°
2026-05-04 09:20 52.18594 4.43093 11446 ft 335 kts 252°
2026-05-04 09:20 52.17875 4.39450 12256 ft 340 kts 252°
2026-05-04 09:21 52.17142 4.35770 13135 ft 342 kts 251°
2026-05-04 09:21 52.16401 4.32064 13977 ft 346 kts 251°
2026-05-04 09:21 52.15662 4.28374 14773 ft 349 kts 251°
2026-05-04 09:21 52.14904 4.24608 15547 ft 352 kts 251°
2026-05-04 09:22 52.14138 4.20808 16318 ft 355 kts 251°
2026-05-04 09:22 52.13367 4.16973 17036 ft 359 kts 251°
2026-05-04 09:22 52.12590 4.13096 17739 ft 362 kts 251°
2026-05-04 09:22 52.11809 4.09182 18417 ft 365 kts 251°
2026-05-04 09:23 52.11020 4.05250 19079 ft 367 kts 251°
2026-05-04 09:23 52.10223 4.01303 19654 ft 367 kts 251°
2026-05-04 09:23 52.09425 3.97359 19927 ft 367 kts 250°
2026-05-04 09:23 52.08636 3.93476 20001 ft 352 kts 250°
2026-05-04 09:25 52.03319 3.67539 20021 ft 340 kts 250°
2026-05-04 09:25 52.02567 3.63890 20021 ft 341 kts 250°
2026-05-04 09:26 52.01814 3.60244 20022 ft 341 kts 250°
2026-05-04 09:26 52.01058 3.56583 20022 ft 342 kts 250°
2026-05-04 09:26 52.00296 3.52921 20020 ft 342 kts 250°
2026-05-04 09:26 51.99419 3.49403 20016 ft 341 kts 241°
2026-05-04 09:27 51.98123 3.46188 20020 ft 341 kts 234°
2026-05-04 09:27 51.96710 3.43091 20024 ft 341 kts 233°
2026-05-04 09:27 51.95290 3.40001 20019 ft 342 kts 233°
2026-05-04 09:27 51.93878 3.36908 20022 ft 341 kts 233°
2026-05-04 09:28 51.92470 3.33815 20023 ft 342 kts 233°
2026-05-04 09:28 51.91057 3.30710 20019 ft 342 kts 233°
2026-05-04 09:28 51.89643 3.27605 20025 ft 342 kts 233°
2026-05-04 09:28 51.88227 3.24497 20024 ft 343 kts 233°
2026-05-04 09:29 51.86814 3.21395 20016 ft 343 kts 233°
2026-05-04 09:29 51.85501 3.18186 20016 ft 343 kts 242°
2026-05-04 09:29 51.84713 3.14548 20020 ft 345 kts 257°
2026-05-04 09:29 51.84413 3.10680 20028 ft 347 kts 262°
2026-05-04 09:30 51.84193 3.06788 20018 ft 347 kts 263°
2026-05-04 09:30 51.83966 3.02898 20023 ft 347 kts 262°
2026-05-04 09:30 51.83723 2.99015 20018 ft 348 kts 262°
2026-05-04 09:30 51.83474 2.95116 20024 ft 348 kts 262°
2026-05-04 09:31 51.83221 2.91231 20018 ft 348 kts 262°
2026-05-04 09:31 51.82965 2.87339 20021 ft 348 kts 262°
2026-05-04 09:31 51.82708 2.83452 20022 ft 348 kts 262°
2026-05-04 09:31 51.82448 2.79556 20022 ft 348 kts 262°
2026-05-04 09:32 51.82188 2.75669 20023 ft 348 kts 262°
2026-05-04 09:32 51.81928 2.71826 20022 ft 348 kts 262°
2026-05-04 09:34 51.80030 2.44595 20011 ft 348 kts 262°
2026-05-04 09:34 51.79755 2.40716 20011 ft 347 kts 262°
2026-05-04 09:34 51.79480 2.36840 20010 ft 347 kts 262°
2026-05-04 09:34 51.79204 2.32956 20008 ft 347 kts 262°
2026-05-04 09:35 51.78929 2.29082 20012 ft 347 kts 262°
2026-05-04 09:35 51.78651 2.25207 20005 ft 347 kts 262°
2026-05-04 09:35 51.78387 2.21377 20012 ft 347 kts 263°
2026-05-04 09:35 51.78156 2.17447 20021 ft 347 kts 263°
2026-05-04 09:37 51.76561 1.90408 20022 ft 347 kts 263°
2026-05-04 09:37 51.76328 1.86530 20023 ft 347 kts 263°
2026-05-04 09:38 51.76091 1.82651 20022 ft 347 kts 263°
2026-05-04 09:38 51.75854 1.78785 20024 ft 347 kts 263°
2026-05-04 09:38 51.75618 1.74958 20023 ft 346 kts 263°
2026-05-04 09:38 51.75377 1.71087 20021 ft 347 kts 262°
2026-05-04 09:39 51.75133 1.67213 20019 ft 347 kts 263°
2026-05-04 09:39 51.74889 1.63335 20022 ft 348 kts 262°
2026-05-04 09:39 51.74642 1.59449 20021 ft 348 kts 262°
2026-05-04 09:39 51.74397 1.55561 20022 ft 348 kts 262°
2026-05-04 09:40 51.74150 1.51682 20022 ft 348 kts 262°
2026-05-04 09:40 51.73900 1.47795 20018 ft 348 kts 262°
2026-05-04 09:40 51.73651 1.43907 20021 ft 348 kts 262°
2026-05-04 09:40 51.73399 1.40016 20022 ft 348 kts 262°
2026-05-04 09:41 51.73144 1.36126 20021 ft 349 kts 262°
2026-05-04 09:42 51.71403 1.09985 17647 ft 330 kts 262°
2026-05-04 09:43 51.71151 1.06314 17239 ft 328 kts 262°
2026-05-04 09:43 51.70903 1.02702 16803 ft 319 kts 262°
2026-05-04 09:43 51.70663 0.99211 16429 ft 308 kts 262°
2026-05-04 09:43 51.70431 0.95829 16098 ft 300 kts 262°
2026-05-04 09:44 51.70201 0.92487 15749 ft 301 kts 262°
2026-05-04 09:44 51.69969 0.89122 15297 ft 304 kts 262°
2026-05-04 09:44 51.69731 0.85713 14822 ft 308 kts 262°
2026-05-04 09:46 51.68099 0.62561 11692 ft 282 kts 262°
2026-05-04 09:46 51.67873 0.59416 11299 ft 284 kts 262°
2026-05-04 09:46 51.67643 0.56234 10871 ft 288 kts 262°
2026-05-04 09:47 51.67410 0.53008 10432 ft 291 kts 263°
2026-05-04 09:47 51.67173 0.49756 9991 ft 295 kts 263°
2026-05-04 09:49 51.65541 0.27662 7217 ft 273 kts 263°
2026-05-04 09:49 51.65391 0.25645 7049 ft 266 kts 263°
2026-05-04 09:49 51.65174 0.22759 6955 ft 253 kts 263°
2026-05-04 09:51 51.60975 0.08165 5882 ft 248 kts 229°
2026-05-04 09:51 51.59848 0.06065 5493 ft 247 kts 230°
2026-05-04 09:51 51.58726 0.03959 5145 ft 247 kts 230°
2026-05-04 09:51 51.57616 0.01864 4827 ft 246 kts 230°
2026-05-04 09:52 51.56511 -0.00228 4494 ft 246 kts 230°
2026-05-04 09:52 51.55408 -0.02322 4173 ft 245 kts 230°
2026-05-04 09:52 51.54307 -0.04410 3873 ft 242 kts 230°
2026-05-04 09:52 51.53244 -0.06427 3695 ft 231 kts 230°
2026-05-04 09:53 51.52231 -0.08348 3554 ft 220 kts 230°
2026-05-04 09:53 51.51272 -0.10164 3408 ft 207 kts 230°
2026-05-04 09:53 51.50382 -0.11846 3267 ft 193 kts 230°
2026-05-04 09:53 51.49510 -0.13492 2971 ft 191 kts 230°
2026-05-04 09:54 51.48659 -0.15099 2633 ft 191 kts 230°
2026-05-04 09:54 51.47889 -0.16823 2471 ft 191 kts 246°
2026-05-04 09:54 51.47396 -0.18800 2467 ft 191 kts 250°
2026-05-04 09:54 51.46934 -0.20792 2472 ft 190 kts 255°
2026-05-04 09:55 51.46712 -0.22870 2454 ft 187 kts 270°
2026-05-04 09:55 51.46870 -0.24864 2320 ft 173 kts 284°
2026-05-04 09:55 51.47160 -0.26696 2128 ft 166 kts 285°
2026-05-04 09:55 51.47376 -0.28515 2128 ft 166 kts 279°
2026-05-04 09:56 51.47450 -0.30368 2011 ft 166 kts 272°
2026-05-04 09:56 51.47435 -0.32217 1808 ft 164 kts 274°
2026-05-04 09:56 51.47514 -0.33892 1458 ft 140 kts 277°
2026-05-04 09:56 51.47576 -0.35444 1084 ft 139 kts 276°
2026-05-04 09:57 51.47704 -0.36976 857 ft 139 kts 281°
2026-05-04 09:57 51.47789 -0.38510 689 ft 141 kts 271°
2026-05-04 09:57 51.47776 -0.40093 497 ft 139 kts 271°
2026-05-04 09:57 51.47779 -0.41643 334 ft 139 kts 271°
2026-05-04 09:58 51.47773 -0.43187 166 ft 138 kts 270°
2026-05-04 09:58 51.47762 -0.44683 96 ft 129 kts 271°
2026-05-04 09:58 51.47761 -0.45765 90 ft 55 kts 269°
2026-05-04 10:00 51.47581 -0.47271 92 ft 18 kts 269°
2026-05-04 10:00 51.47579 -0.47481 93 ft 20 kts 270°
2026-05-04 10:02 51.47489 -0.48479 92 ft 12 kts 179°
2026-05-04 10:04 51.46903 -0.48475 92 ft 6 kts 193°
2026-05-04 10:04 51.46878 -0.48540 92 ft 9 kts 262°
2026-05-04 10:04 51.46878 -0.48650 92 ft 11 kts 269°
2026-05-04 10:04 51.46876 -0.48759 92 ft 4 kts 269°
2026-05-04 10:05 51.46876 -0.48817 92 ft 3 kts 270°
2026-05-04 10:05 51.46892 -0.48855 92 ft 4 kts 330°
2026-05-04 10:05 51.46917 -0.48860 92 ft 3 kts 358°